TimeEST,TemperatureF,Dew PointF,Humidity,Sea Level PressureIn,VisibilityMPH,Wind Direction,Wind SpeedMPH,Gust SpeedMPH,PrecipitationIn,Events,Conditions,WindDirDegrees,DateUTC
12:53 AM,66.0,63.0,90,30.04,10.0,Calm,Calm,-,N/A,,Clear,0,2013-01-17 05:53:00
1:53 AM,66.0,63.0,90,30.04,10.0,Calm,Calm,-,N/A,,Clear,0,2013-01-17 06:53:00
2:53 AM,66.9,64.0,90,30.03,10.0,Calm,Calm,-,N/A,,Clear,0,2013-01-17 07:53:00
3:53 AM,66.9,64.9,93,30.03,10.0,South,3.5,-,N/A,,Clear,180,2013-01-17 08:53:00
4:53 AM,66.9,64.9,93,30.02,10.0,SE,4.6,-,N/A,,Scattered Clouds,140,2013-01-17 09:53:00
5:53 AM,66.2,64.4,94,30.01,9.0,SE,5.8,-,N/A,,Partly Cloudy,140,2013-01-17 10:53:00
6:53 AM,68.0,66.0,93,30.02,10.0,South,6.9,-,N/A,,Partly Cloudy,180,2013-01-17 11:53:00
7:53 AM,69.1,66.0,90,30.04,10.0,South,8.1,-,N/A,,Scattered Clouds,180,2013-01-17 12:53:00
8:53 AM,70.0,66.9,90,30.05,10.0,South,9.2,-,N/A,,Mostly Cloudy,190,2013-01-17 13:53:00
9:53 AM,71.1,68.0,90,30.07,10.0,SSW,8.1,-,N/A,,Overcast,200,2013-01-17 14:53:00
9:57 AM,69.8,66.2,88,30.07,10.0,West,18.4,25.3,N/A,,Overcast,260,2013-01-17 14:57:00
10:03 AM,68.0,64.4,88,30.08,2.0,West,18.4,26.5,0.00,Rain,Light Rain,280,2013-01-17 15:03:00
10:10 AM,66.2,64.4,94,30.08,4.0,West,18.4,25.3,0.01,Rain,Light Rain,280,2013-01-17 15:10:00
10:26 AM,66.2,64.4,94,30.09,8.0,WNW,18.4,26.5,0.01,,Overcast,290,2013-01-17 15:26:00
10:53 AM,66.9,63.0,87,30.09,6.0,WNW,15.0,24.2,0.01,,Overcast,290,2013-01-17 15:53:00
10:58 AM,66.2,62.6,88,30.09,2.0,WNW,16.1,21.9,0.00,Rain,Light Rain,290,2013-01-17 15:58:00
11:13 AM,66.2,62.6,88,30.09,2.0,West,12.7,-,0.01,Rain,Light Rain,280,2013-01-17 16:13:00
11:22 AM,66.2,64.4,94,30.09,2.0,West,15.0,19.6,0.02,Rain,Light Rain,280,2013-01-17 16:22:00
11:44 AM,64.4,62.6,94,30.08,9.0,WNW,16.1,21.9,0.02,,Overcast,300,2013-01-17 16:44:00
11:53 AM,66.0,62.1,87,30.08,10.0,WNW,16.1,20.7,0.02,,Overcast,300,2013-01-17 16:53:00
12:34 PM,64.4,60.8,88,30.07,2.0,WNW,13.8,21.9,0.00,Rain,Light Rain,290,2013-01-17 17:34:00
12:53 PM,63.0,60.1,90,30.07,2.0,West,16.1,21.9,0.00,Rain,Light Rain,280,2013-01-17 17:53:00
1:02 PM,62.6,59.0,88,30.07,2.0,WNW,16.1,27.6,0.00,Rain,Light Rain,290,2013-01-17 18:02:00
1:18 PM,62.6,59.0,88,30.06,2.0,WNW,15.0,24.2,0.00,,Overcast,290,2013-01-17 18:18:00
1:39 PM,60.8,57.2,88,30.06,2.0,WNW,16.1,27.6,0.00,,Overcast,300,2013-01-17 18:39:00
1:47 PM,60.8,57.2,88,30.06,6.0,WNW,13.8,27.6,0.00,,Overcast,300,2013-01-17 18:47:00
1:48 PM,61.0,57.0,87,30.06,7.0,WNW,17.3,27.6,0.00,,Overcast,300,2013-01-17 18:48:00
1:51 PM,60.8,57.2,88,30.06,6.0,WNW,15.0,27.6,N/A,,Overcast,300,2013-01-17 18:51:00
1:53 PM,60.8,57.2,88,30.06,4.0,WNW,15.0,25.3,N/A,,Overcast,300,2013-01-17 18:53:00
2:06 PM,60.8,55.4,82,30.06,6.0,WNW,15.0,25.3,N/A,,Overcast,300,2013-01-17 19:06:00
2:19 PM,60.8,55.4,82,30.07,4.0,WNW,16.1,25.3,N/A,,Overcast,300,2013-01-17 19:19:00
2:24 PM,59.0,55.4,88,30.07,6.0,WNW,17.3,27.6,N/A,,Overcast,300,2013-01-17 19:24:00
2:53 PM,61.0,52.0,72,30.07,6.0,West,18.4,27.6,N/A,,Haze,280,2013-01-17 19:53:00
3:53 PM,61.0,48.9,64,30.08,10.0,West,20.7,28.8,N/A,,Overcast,280,2013-01-17 20:53:00
4:53 PM,61.0,48.0,62,30.09,10.0,WNW,15.0,-,N/A,,Overcast,290,2013-01-17 21:53:00
5:53 PM,60.1,45.0,57,30.10,10.0,WNW,16.1,24.2,N/A,,Mostly Cloudy,290,2013-01-17 22:53:00
6:53 PM,60.1,46.9,62,30.11,10.0,WNW,16.1,26.5,N/A,,Mostly Cloudy,290,2013-01-17 23:53:00
7:53 PM,59.0,46.9,64,30.14,10.0,WNW,13.8,24.2,N/A,,Overcast,300,2013-01-18 00:53:00
8:53 PM,57.9,46.0,65,30.15,10.0,WNW,13.8,23.0,N/A,,Overcast,300,2013-01-18 01:53:00
9:30 PM,57.2,46.4,67,30.16,10.0,NW,17.3,23.0,N/A,,Mostly Cloudy,310,2013-01-18 02:30:00
9:53 PM,55.9,45.0,67,30.16,10.0,WNW,16.1,26.5,N/A,,Mostly Cloudy,300,2013-01-18 02:53:00
10:11 PM,55.4,44.6,67,30.16,10.0,NW,15.0,26.5,N/A,,Overcast,310,2013-01-18 03:11:00
10:53 PM,55.9,44.1,64,30.17,10.0,NW,12.7,23.0,N/A,,Overcast,320,2013-01-18 03:53:00
11:53 PM,53.1,42.1,66,30.17,10.0,NW,15.0,27.6,N/A,,Mostly Cloudy,320,2013-01-18 04:53:00